GW3498 Weather Reports


Display with metric or nautical units.
time (UTC)temp
F
wind
direction
speed
MPH
gust
MPH
rain 1hr
in
rain 24hr
in
rain mn
in
humidity
%
barometer
mb
20260901054518 72 14 0.0 1.0 0.00 0.00 0.00 71 1017.7
20260901053532 72 0.0 0.0 0.00 0.00 0.00 72 1017.6
20260901052526 72 22 0.0 1.0 0.00 0.00 0.00 71 1017.5
20260901051522 73 18 0.0 1.0 0.00 0.00 0.00 70 1017.5
20260901050516 73 32 0.0 1.0 0.00 0.00 0.00 70 1017.5
20260901045530 72 16 1.0 2.0 0.00 0.00 0.00 70 1017.4
20260901044525 72 81 0.0 1.0 0.00 0.00 0.00 70 1017.3
20260901043539 73 38 0.0 1.0 0.00 0.00 0.00 62 1017.4
20260901042534 78 85 1.0 2.0 0.00 0.00 0.00 48 1017.1
20260901041530 78 63 1.0 1.0 0.00 0.00 0.00 46 1017.1
20260901040524 78 24 2.0 3.0 0.00 0.00 0.00 46 1017.2
20260901035518 78 20 1.0 3.0 0.00 0.00 0.00 47 1017.2
20260901034533 78 24 2.0 3.0 0.00 0.00 0.00 48 1017.3
20260901033529 78 22 1.0 3.0 0.00 0.00 0.00 48 1017.3
20260901032522 77 9 2.0 4.0 0.00 0.00 0.00 49 1017.3
20260901031517 73 26 1.0 2.0 0.00 0.00 0.00 63 1017.5
20260901030531 73 352 1.0 1.0 0.00 0.00 0.00 69 1017.4
20260901025527 73 5 1.0 2.0 0.00 0.00 0.00 72 1017.4
20260901024520 74 345 2.0 4.0 0.00 0.00 0.00 74 1017.4
20260901023536 74 344 2.0 6.0 0.00 0.00 0.00 73 1017.3
20260901022530 74 356 2.0 3.0 0.00 0.00 0.00 71 1017.3
20260901021524 74 10 1.0 3.0 0.00 0.00 0.00 72 1017.3
20260901020519 74 345 2.0 3.0 0.00 0.00 0.00 72 1017.2
20260901015533 74 322 2.0 7.0 0.00 0.00 0.00 77 1017.1
20260901014528 74 342 2.0 7.0 0.00 0.00 0.00 78 1017.3
20260901013525 74 356 3.0 7.0 0.00 0.00 0.00 76 1017.2
20260901012517 74 326 2.0 6.0 0.00 0.00 0.00 78 1017.2
20260901011537 74 349 2.0 7.0 0.00 0.00 0.00 77 1017.3
20260901010526 74 336 2.0 6.0 0.00 0.00 0.00 74 1017.3
20260901005541 74 351 2.0 6.0 0.00 0.00 0.00 73 1017.2
20260901004516 73 3 1.0 2.0 0.00 0.00 0.00 75 1017.1
20260901003612 73 4 1.0 2.0 0.00 0.00 0.00 80 1017.1
20260901002525 73 18 0.0 1.0 0.00 0.00 0.00 78 1017.0
20260901001519 75 241 0.0 2.0 0.00 0.00 0.00 75 1017.0
20260901000615 76 7 1.0 3.0 0.00 0.00 0.00 68 1017.1
20260831235528 76 11 2.0 8.0 0.00 0.00 0.00 69 1017.1
20260831234522 76 6 2.0 6.0 0.00 0.00 0.00 73 1017.2
20260831233517 75 7 2.0 3.0 0.00 0.00 0.00 75 1017.2
20260831232531 75 332 1.0 4.0 0.00 0.00 0.00 75 1017.3
20260831231525 75 351 1.0 3.0 0.00 0.00 0.00 78 1017.0
20260831230521 75 335 1.0 3.0 0.00 0.00 0.00 79 1017.0
20260831225534 75 355 3.0 6.0 0.00 0.00 0.00 79 1017.0
20260831224529 75 329 2.0 6.0 0.00 0.00 0.00 78 1017.0
20260831223523 75 350 3.0 7.0 0.00 0.00 0.00 77 1016.9
20260831222518 75 350 2.0 6.0 0.00 0.00 0.00 77 1017.0
20260831221532 76 354 3.0 6.0 0.00 0.00 0.00 75 1016.9
20260831220529 77 341 2.0 4.0 0.00 0.00 0.00 74 1016.8
20260831215524 77 346 2.0 6.0 0.00 0.00 0.00 72 1016.8
20260831214516 77 340 1.0 4.0 0.00 0.00 0.00 72 1016.6
20260831213531 77 352 2.0 4.0 0.00 0.00 0.00 70 1016.7
20260831212526 77 347 2.0 4.0 0.00 0.00 0.00 71 1016.8
20260831211521 77 341 2.0 6.0 0.00 0.00 0.00 70 1016.8
20260831210535 77 357 2.0 4.0 0.00 0.00 0.00 70 1016.7
20260831205529 77 345 1.0 4.0 0.00 0.00 0.00 70 1016.5
20260831204524 77 355 0.0 1.0 0.00 0.00 0.00 70 1016.6
20260831203519 78 340 0.0 2.0 0.00 0.00 0.00 69 1016.4
20260831202533 78 345 2.0 6.0 0.00 0.00 0.00 68 1016.4
20260831201528 78 5 0.0 1.0 0.00 0.00 0.00 69 1016.3
20260831200523 78 354 1.0 2.0 0.00 0.00 0.00 69 1016.3
20260831195518 78 347 0.0 1.0 0.00 0.00 0.00 69 1016.3
20260831194531 79 339 2.0 4.0 0.00 0.00 0.00 69 1016.3
20260831193526 79 337 1.0 2.0 0.00 0.00 0.00 68 1016.3
20260831192520 79 354 1.0 2.0 0.00 0.00 0.00 67 1016.3
20260831191535 79 3 1.0 3.0 0.00 0.00 0.00 69 1016.2
20260831190530 79 16 2.0 6.0 0.00 0.00 0.00 68 1016.2
20260831185523 79 25 0.0 1.0 0.00 0.00 0.00 68 1016.1
20260831184520 80 10 1.0 4.0 0.00 0.00 0.00 67 1016.1
20260831183533 80 24 1.0 2.0 0.00 0.00 0.00 66 1015.9
20260831182528 80 8 1.0 3.0 0.00 0.00 0.00 65 1015.8
20260831181521 81 340 2.0 6.0 0.00 0.00 0.00 65 1015.6
20260831180517 81 15 3.0 7.0 0.00 0.00 0.00 64 1015.5
20260831175531 81 348 2.0 6.0 0.00 0.00 0.00 63 1015.5
20260831174525 82 4 2.0 6.0 0.00 0.00 0.00 62 1015.5
20260831173519 82 5 2.0 6.0 0.00 0.00 0.00 61 1015.5
20260831172534 83 344 2.0 7.0 0.00 0.00 0.00 59 1015.4
20260831171530 83 13 2.0 8.0 0.00 0.00 0.00 57 1015.5
20260831170524 84 356 2.0 8.0 0.00 0.00 0.00 54 1015.4
20260831165519 84 357 2.0 6.0 0.00 0.00 0.00 51 1015.5
20260831164537 85 348 2.0 7.0 0.00 0.00 0.00 50 1015.5
20260831163530 86 322 2.0 7.0 0.00 0.00 0.00 49 1015.5
20260831162525 87 340 2.0 6.0 0.00 0.00 0.00 48 1015.7
20260831161521 88 264 2.0 4.0 0.00 0.00 0.00 46 1015.6
20260831160535 88 314 3.0 7.0 0.00 0.00 0.00 45 1015.6
20260831155530 89 229 2.0 4.0 0.00 0.00 0.00 42 1015.6
20260831154526 90 218 2.0 4.0 0.00 0.00 0.00 41 1015.6
20260831153541 89 202 2.0 7.0 0.00 0.00 0.00 41 1015.5
20260831152517 89 199 3.0 6.0 0.00 0.00 0.00 40 1015.6
20260831151531 90 268 2.0 8.0 0.00 0.00 0.00 41 1015.4
20260831150526 90 312 3.0 7.0 0.00 0.00 0.00 40 1015.4
20260831145520 91 288 2.0 4.0 0.00 0.00 0.00 39 1015.4
20260831144555 91 290 3.0 9.0 0.00 0.00 0.00 39 1015.1
20260831143549 92 255 2.0 7.0 0.00 0.00 0.00 37 1015.2
20260831142524 93 320 2.0 8.0 0.00 0.00 0.00 32 1015.1
20260831141519 94 278 2.0 4.0 0.00 0.00 0.00 31 1015.1
20260831140533 94 220 2.0 4.0 0.00 0.00 0.00 31 1015.0
20260831135528 94 244 2.0 6.0 0.00 0.00 0.00 32 1015.0
20260831134523 93 223 2.0 3.0 0.00 0.00 0.00 33 1015.0
20260831133516 94 218 1.0 3.0 0.00 0.00 0.00 33 1015.1
20260831132532 93 268 2.0 9.0 0.00 0.00 0.00 33 1015.2
20260831131546 93 16 2.0 6.0 0.00 0.00 0.00 34 1015.2
20260831130523 94 210 2.0 4.0 0.00 0.00 0.00 35 1015.3
20260831125516 93 291 1.0 3.0 0.00 0.00 0.00 37 1015.3
20260831124531 92 266 2.0 4.0 0.00 0.00 0.00 38 1015.3
20260831123526 92 247 3.0 6.0 0.00 0.00 0.00 39 1015.5
20260831122542 92 266 2.0 4.0 0.00 0.00 0.00 39 1015.5
20260831121518 92 258 1.0 3.0 0.00 0.00 0.00 40 1015.5
20260831120534 91 271 2.0 6.0 0.00 0.00 0.00 41 1015.6
20260831115528 90 353 2.0 6.0 0.00 0.00 0.00 42 1015.6
20260831114522 91 222 2.0 7.0 0.00 0.00 0.00 42 1015.8
20260831113516 90 185 2.0 6.0 0.00 0.00 0.00 43 1015.9
20260831112550 90 220 2.0 7.0 0.00 0.00 0.00 45 1015.8
20260831111524 90 205 2.0 6.0 0.00 0.00 0.00 46 1015.8
20260831110520 90 254 2.0 6.0 0.00 0.00 0.00 47 1015.9
20260831105555 90 300 2.0 6.0 0.00 0.00 0.00 48 1016.0
20260831104529 88 253 2.0 9.0 0.00 0.00 0.00 50 1016.1
20260831103524 88 163 1.0 3.0 0.00 0.00 0.00 52 1016.1
20260831102518 88 227 2.0 3.0 0.00 0.00 0.00 52 1016.2
20260831101532 88 286 2.0 7.0 0.00 0.00 0.00 54 1016.3
20260831100528 88 296 2.0 4.0 0.00 0.00 0.00 56 1016.1
20260831095522 86 351 3.0 7.0 0.00 0.00 0.00 58 1016.1
20260831094517 86 317 2.0 6.0 0.00 0.00 0.00 60 1016.2
20260831093531 85 343 3.0 9.0 0.00 0.00 0.00 62 1016.2
20260831092528 85 320 2.0 8.0 0.00 0.00 0.00 62 1016.2
20260831091525 85 269 2.0 7.0 0.00 0.00 0.00 62 1016.0
20260831090519 84 343 2.0 4.0 0.00 0.00 0.00 63 1016.0
20260831085534 84 308 2.0 6.0 0.00 0.00 0.00 65 1015.9
20260831084528 83 0 3.0 8.0 0.00 0.00 0.00 66 1015.8
20260831083544 83 341 4.0 8.0 0.00 0.00 0.00 66 1015.9
20260831082518 82 341 2.0 4.0 0.00 0.00 0.00 67 1015.8
20260831081533 82 304 2.0 8.0 0.00 0.00 0.00 68 1015.7
20260831080528 82 339 2.0 6.0 0.00 0.00 0.00 68 1015.6
20260831075521 81 226 1.0 3.0 0.00 0.00 0.00 70 1015.9
20260831074535 80 329 1.0 4.0 0.00 0.00 0.00 71 1015.7
20260831073530 79 251 1.0 3.0 0.00 0.00 0.00 73 1015.7
20260831072544 78 214 1.0 4.0 0.00 0.00 0.00 75 1015.6
20260831071520 77 203 1.0 2.0 0.00 0.00 0.00 76 1015.4
20260831070533 77 164 0.0 1.0 0.00 0.00 0.00 76 1015.5
20260831065549 76 167 1.0 3.0 0.00 0.00 0.00 77 1015.6
20260831064522 76 197 1.0 2.0 0.00 0.00 0.00 76 1015.6
20260831063517 75 200 0.0 1.0 0.00 0.00 0.00 78 1015.6
20260831062532 74 175 0.0 1.0 0.00 0.00 0.00 81 1015.5
20260831061526 74 0.0 0.0 0.00 0.00 0.00 82 1015.4
20260831060522 73 0.0 0.0 0.00 0.00 0.00 82 1015.3
20260831055536 73 0.0 0.0 0.00 0.00 0.00 82 1015.4